Weather History for Pratt, KS

Change the Weather History Date:

Wednesday, October 26, 2011

  Actual Average (KP28) Record (KP28)
Temperature  
Mean Temperature 48 °F 55 °F  
Max Temperature 55 °F 67 °F 95 °F (1922)
Min Temperature 41 °F 42 °F 24 °F (1957)
Degree Days  
Heating Degree Days 17 11  
Month to date heating degree days 178  
Since 1 July heating degree days 212  
Cooling Degree Days 0 0  
Month to date cooling degree days 37  
Year to date cooling degree days 1768  
Moisture  
Dew Point 36 °F    
Average Humidity 63    
Maximum Humidity 81    
Minimum Humidity 47    
Precipitation  
Precipitation 0.00 in 0.08 in 1.90 in (1918)
Month to date precipitation 2.45  
Year to date precipitation 24.90  
Snow  
Snow 0.00 in 0.00 in - ()
Month to date snowfall 0.0  
Since 1 July snowfall 0.0  
Since 1 September snowfall 0.0  
Snow Depth -    
Sea Level Pressure  
Sea Level Pressure 30.08 in    
Wind  
Wind Speed 19 mph (NNE)    
Max Wind Speed 25 mph    
Max Gust Speed 31 mph    
Visibility 10 miles    
Events Rain    
T = Trace of Precipitation, MM = Missing Value Source: NWS Daily Summary

Daily Weather History Graph

Daily Weather History Graph

Search for Another Location

Airport:

Trip Planner

Search our weather history database for the weather conditions in past years. The results will help you decide how hot, cold, wet, or windy it might be!

Date:

Astronomy

Oct. 26, 2011 Rise Set
Actual Time 7:53 AM CDT 6:43 PM CDT
Civil Twilight 7:26 AM CDT 7:10 PM CDT
Nautical Twilight 6:56 AM CDT 7:41 PM CDT
Astronomical Twilight 6:25 AM CDT 8:11 PM CDT
Moon 7:42 AM CDT (10/26) 6:28 PM CDT (10/26)
Length of Visible Light 11h 43m
Length of Day
10h 49m
Waning Crescent, 0% of the Moon is Illuminated
Oct 26
Waning Crescent
Oct 26
New
Nov 2
First Quarter
Nov 10
Full
Nov 18
Last Quarter

Hourly Weather History & Observations

Time (CDT) Temp. Windchill Dew Point Humidity Pressure Visibility Wind Dir Wind Speed Gust Speed Precip Events Conditions
12:15 AM 53.6 °F - 41.0 °F 62% 29.96 in 10.0 mi NNE 16.1 mph 24.2 mph N/A   Clear
12:55 AM 53.6 °F - 41.0 °F 62% 29.96 in 10.0 mi NNE 20.7 mph 25.3 mph N/A   Clear
1:15 AM 51.8 °F - 41.0 °F 67% 29.96 in 10.0 mi NNE 17.3 mph 23.0 mph N/A   Clear
1:35 AM 51.8 °F - 41.0 °F 67% 29.96 in 10.0 mi NNE 17.3 mph 24.2 mph N/A   Clear
1:55 AM 51.8 °F - 39.2 °F 62% 29.97 in 10.0 mi NNE 17.3 mph - N/A   Clear
2:15 AM 51.8 °F - 39.2 °F 62% 29.97 in 10.0 mi NNE 19.6 mph - N/A   Clear
2:35 AM 51.8 °F - 39.2 °F 62% 29.98 in 10.0 mi NE 17.3 mph 21.9 mph N/A   Clear
2:55 AM 51.8 °F - 37.4 °F 58% 29.99 in 10.0 mi NNE 18.4 mph 23.0 mph N/A   Clear
3:15 AM 51.8 °F - 37.4 °F 58% 29.98 in 10.0 mi NE 20.7 mph 29.9 mph N/A   Scattered Clouds
3:35 AM 50.0 °F - 37.4 °F 62% 29.99 in 10.0 mi NE 18.4 mph 26.5 mph N/A   Clear
3:55 AM 50.0 °F - 37.4 °F 62% 30.02 in 10.0 mi NNE 19.6 mph 24.2 mph N/A   Scattered Clouds
4:15 AM 50.0 °F - 37.4 °F 62% 30.02 in 10.0 mi NNE 19.6 mph 24.2 mph N/A   Scattered Clouds
4:35 AM 50.0 °F - 35.6 °F 58% 30.02 in 10.0 mi NNE 23.0 mph 27.6 mph N/A   Clear
4:55 AM 50.0 °F - 35.6 °F 58% 30.02 in 10.0 mi NNE 20.7 mph 27.6 mph N/A   Clear
5:15 AM 50.0 °F - 35.6 °F 58% 30.03 in 10.0 mi NNE 16.1 mph 27.6 mph N/A   Clear
5:35 AM 50.0 °F - 35.6 °F 58% 30.04 in 10.0 mi NNE 19.6 mph 27.6 mph N/A   Clear
5:55 AM 48.2 °F - 35.6 °F 62% 30.04 in 10.0 mi NNE 23.0 mph 27.6 mph N/A   Clear
6:15 AM 48.2 °F - 35.6 °F 62% 30.06 in 10.0 mi NNE 19.6 mph 27.6 mph N/A   Clear
6:35 AM 46.4 °F 38.3 °F 35.6 °F 66% 30.07 in 10.0 mi NNE 23.0 mph 27.6 mph N/A   Clear
6:55 AM 46.4 °F 39.5 °F 35.6 °F 66% 30.07 in 10.0 mi NNE 17.3 mph 26.5 mph N/A   Clear
7:15 AM 46.4 °F 39.2 °F 35.6 °F 66% 30.08 in 10.0 mi NNE 18.4 mph 23.0 mph N/A   Clear
7:35 AM 44.6 °F 37.2 °F 35.6 °F 71% 30.08 in 10.0 mi NNE 17.3 mph 25.3 mph N/A   Clear
7:55 AM 44.6 °F 38.4 °F 35.6 °F 71% 30.09 in 10.0 mi NNE 12.7 mph 23.0 mph N/A   Clear
8:15 AM 44.6 °F 37.2 °F 35.6 °F 71% 30.08 in 10.0 mi NNE 17.3 mph 24.2 mph N/A   Clear
8:35 AM 44.6 °F 36.9 °F 37.4 °F 76% 30.09 in 10.0 mi NNE 18.4 mph 25.3 mph N/A   Clear
8:55 AM 44.6 °F 36.4 °F 37.4 °F 76% 30.10 in 10.0 mi North 20.7 mph 24.2 mph N/A   Clear
9:15 AM 46.4 °F 39.2 °F 37.4 °F 71% 30.11 in 10.0 mi North 18.4 mph 25.3 mph N/A   Clear
9:35 AM 46.4 °F 39.2 °F 37.4 °F 71% 30.11 in 10.0 mi NNE 18.4 mph 23.0 mph N/A   Clear
10:15 AM 50.0 °F - 37.4 °F 62% 30.10 in 10.0 mi NE 23.0 mph - N/A   Scattered Clouds
10:35 AM 50.0 °F - 37.4 °F 62% 30.11 in 10.0 mi NNE 25.3 mph 31.1 mph N/A   Clear
10:55 AM 51.8 °F - 37.4 °F 58% 30.12 in 10.0 mi NNE 24.2 mph 31.1 mph N/A   Scattered Clouds
11:15 AM 51.8 °F - 37.4 °F 58% 30.11 in 10.0 mi NNE 23.0 mph 27.6 mph N/A   Scattered Clouds
11:35 AM 51.8 °F - 37.4 °F 58% 30.11 in 10.0 mi NNE 19.6 mph 29.9 mph N/A   Scattered Clouds
11:55 AM 53.6 °F - 37.4 °F 54% 30.11 in 10.0 mi NNE 24.2 mph 28.8 mph N/A   Scattered Clouds
12:15 PM 53.6 °F - 37.4 °F 54% 30.11 in 10.0 mi NNE 21.9 mph 28.8 mph N/A   Scattered Clouds
12:35 PM 53.6 °F - 35.6 °F 51% 30.11 in 10.0 mi NNE 23.0 mph 28.8 mph N/A   Clear
12:55 PM 53.6 °F - 35.6 °F 51% 30.10 in 10.0 mi NE 20.7 mph 28.8 mph N/A   Clear
1:35 PM 55.4 °F - 35.6 °F 47% 30.08 in 10.0 mi NNE 19.6 mph 24.2 mph N/A   Clear
1:55 PM 55.4 °F - 35.6 °F 47% 30.07 in 10.0 mi NNE 16.1 mph 24.2 mph N/A   Clear
2:15 PM 55.4 °F - 37.4 °F 51% 30.07 in 10.0 mi NNE 18.4 mph 25.3 mph N/A   Scattered Clouds
2:35 PM 55.4 °F - 37.4 °F 51% 30.06 in 10.0 mi North 17.3 mph 24.2 mph N/A   Scattered Clouds
2:55 PM 55.4 °F - 37.4 °F 51% 30.07 in 10.0 mi North 18.4 mph 26.5 mph N/A   Clear
3:15 PM 55.4 °F - 35.6 °F 47% 30.07 in 10.0 mi North 13.8 mph - N/A   Clear
3:35 PM 53.6 °F - 35.6 °F 51% 30.07 in 10.0 mi North 19.6 mph 24.2 mph N/A   Clear
3:55 PM 53.6 °F - 35.6 °F 51% 30.08 in 10.0 mi North 18.4 mph 23.0 mph N/A   Scattered Clouds
4:35 PM 51.8 °F - 33.8 °F 50% 30.09 in 10.0 mi North 20.7 mph 26.5 mph N/A   Scattered Clouds
4:55 PM 50.0 °F - 33.8 °F 54% 30.09 in 10.0 mi North 19.6 mph 25.3 mph N/A   Clear
5:15 PM 50.0 °F - 33.8 °F 54% 30.09 in 10.0 mi North 18.4 mph 26.5 mph N/A   Scattered Clouds
5:35 PM 46.4 °F 38.5 °F 33.8 °F 62% 30.09 in 10.0 mi North 21.9 mph 28.8 mph N/A   Scattered Clouds
5:55 PM 46.4 °F 38.1 °F 33.8 °F 62% 30.08 in 10.0 mi North 24.2 mph 28.8 mph N/A   Clear
6:15 PM 44.6 °F 35.7 °F 33.8 °F 66% 30.09 in 10.0 mi North 24.2 mph 29.9 mph N/A   Clear
6:35 PM 44.6 °F 36.4 °F 33.8 °F 66% 30.09 in 10.0 mi North 20.7 mph 25.3 mph N/A   Clear
6:55 PM 42.8 °F 34.0 °F 33.8 °F 70% 30.10 in 10.0 mi North 20.7 mph 25.3 mph N/A   Clear
7:15 PM 42.8 °F 35.1 °F 33.8 °F 70% 30.11 in 10.0 mi North 16.1 mph 24.2 mph N/A   Clear
7:35 PM 42.8 °F 34.8 °F 33.8 °F 70% 30.12 in 10.0 mi North 17.3 mph 25.3 mph N/A   Clear
7:55 PM 42.8 °F 34.5 °F 33.8 °F 70% 30.12 in 10.0 mi North 18.4 mph 25.3 mph N/A   Clear
8:15 PM 42.8 °F 34.8 °F 33.8 °F 70% 30.12 in 10.0 mi North 17.3 mph 23.0 mph N/A   Clear
8:35 PM 42.8 °F 34.5 °F 33.8 °F 70% 30.14 in 10.0 mi North 18.4 mph 21.9 mph N/A   Clear
8:55 PM 42.8 °F 34.8 °F 32.0 °F 66% 30.14 in 10.0 mi North 17.3 mph 23.0 mph N/A   Clear
9:15 PM 42.8 °F 34.8 °F 32.0 °F 66% 30.14 in 10.0 mi North 17.3 mph - N/A   Clear
9:35 PM 42.8 °F 34.3 °F 32.0 °F 66% 30.15 in 10.0 mi North 19.6 mph - N/A   Clear
9:55 PM 42.8 °F 34.0 °F 32.0 °F 66% 30.16 in 10.0 mi North 20.7 mph 25.3 mph N/A   Clear
10:15 PM 42.8 °F 34.8 °F 33.8 °F 70% 30.17 in 10.0 mi North 17.3 mph 21.9 mph N/A   Clear
10:35 PM 42.8 °F 34.5 °F 33.8 °F 70% 30.16 in 10.0 mi North 18.4 mph 24.2 mph N/A   Clear
10:55 PM 42.8 °F 34.8 °F 33.8 °F 70% 30.16 in 10.0 mi North 17.3 mph 26.5 mph N/A   Clear
11:15 PM 42.8 °F 36.2 °F 33.8 °F 70% 30.16 in 10.0 mi North 12.7 mph - N/A   Clear
11:35 PM 41.0 °F 32.8 °F 35.6 °F 81% 30.17 in 10.0 mi North 16.1 mph 23.0 mph N/A   Light Drizzle
11:55 PM 41.0 °F 32.8 °F 35.6 °F 81% 30.18 in 10.0 mi North 16.1 mph - N/A Rain Light Rain